Location: Pedimozza
(42.0500°N, 9.3500°E)
Time: 22:22:49
(UTC+00:00)

CZ-2C R/B - Pass Details

Date: 19 August 2019
Orbit: 705 x 907 km, 98.1° (Epoch: 15 September)

Event Time Altitude Azimuth Distance (km) Brightness Sun altitude
Exits shadow 20:39:45 19° 211° (SSW) 1,629 4.5 -23.3°
Maximum altitude 20:42:24 34° 263° (W) 1,165 4.2 -23.6°
Drops below altitude 10° 20:46:43 10° 328° (NNW) 2,190 6.4 -24.2°
Sets 20:49:12 0° 338° (NNW) 3,126 7.3 -24.5°
